Погода в Новом Дубовом

Россия / Липецкая область     52°18′26″N   39°12′46″E
темп.,
°C
ветер,
м/с
пор.,
м/с
влажн.,
%
обл.,
%
осадки,
мм/ч
давл.,
гПа
погр.,
м
13 апреля, вт
вт1300:00+13вюв4126268 0.0 1025241
03:00+10вюв4116864 0.0 1026215
06:00+9вюв3973100 0.0 1026192
09:00+15юв510489 0.0 1026439
12:00+20юв61030100 0.0 10251268
15:00+21юв710276 0.0 10241710
18:00+19юв611321 0.0 1023557
21:00+15вюв5144710 0.0 1023382
14 апреля, ср
ср1400:00+12юв4115535 0.0 1023281
03:00+10вюв3864100 0.0 1022160
06:00+8вюв2474100 0.0 102281
09:00+14юв4752100 0.0 1021416
12:00+18юв57335 0.0 10191316
15:00+20юв572423 0.0 10182073
18:00+18ююв3636100 0.0 1017156
21:00+14вюв2248100 0.0 101818
15 апреля, чт
чт1500:00+12ююв256196 0.0 101781
03:00+11юв226486 0.0 101717
06:00+10юв116896 0.0 101710
09:00+14всв335288 0.0 1017296
12:00+18в3439100 0.0 10151153
15:00+20юв4632100 0.0 10142571
18:00+18юв2344100 0.0 101360
21:00+15юз3657100 0.1 1014174
16 апреля, пт
пт1600:00+13з257086 0.0 1015140
03:00+12ссв1272100 0.0 101417
06:00+10вюв2278100 0.0 101527
09:00+15всв2260100 0.0 1015321
12:00+18св3346100 0.0 10151467
15:00+20в4736100 0.0 10142583
18:00+18ю1452100 0.0 1015211
21:00+12ссз1179100 0.2 101616
17 апреля, сб
сб1700:00+13св41072100 1.4 1016333
03:00+12всв6136896 1.8 1017457
06:00+10всв7148442 0.5 1018505
09:00+12всв8127232 0.5 1020727
12:00+14всв71058100 0.0 10211465
15:00+14всв7105029 0.0 10221362
18:00+13всв711385 0.0 10241367
21:00+9всв613430 0.0 1027729